Location: Peach Mountain Observatory
(42.3967°N, 83.9367°W)
Time: 09:37:08
(UTC-05:00)

S-56A Canister/Altair - Pass Details

Date: 29 January 2020
Orbit: 633 x 2500 km, 38.9° (Epoch: 28 February)

Event Time Altitude Azimuth Distance (km) Brightness Sun altitude
Rises 00:02:20 0° 275° (W) 3,320 - -63.8°
Reaches altitude 10° 00:05:13 10° 266° (W) 2,215 - -64.0°
Maximum altitude 00:09:31 31° 203° (SSW) 1,127 - -64.3°
Drops below altitude 10° 00:13:26 10° 140° (SE) 2,004 - -64.5°
Sets 00:15:55 0° 130° (SE) 2,948 - -64.7°
